CW2969 Weather Reports


time (UTC)temp
C
wind
direction
speed
KPH
gust
KPH
rain 1hr
cm
rain 24hr
cm
rain mn
cm
humidity
%
barometer
mb
20240222105937 19 194 4.8 4.8 0.00 0.00 0.00 80 1011.8
20240222104937 19 180 6.4 6.4 0.00 0.00 0.00 81 1011.9
20240222103937 19 299 3.2 3.2 0.00 0.00 0.00 80 1012.0
20240222102937 19 263 3.2 11.3 0.00 0.00 0.00 80 1011.9
20240222101937 19 296 3.2 4.8 0.00 0.00 0.00 81 1011.8
20240222100937 19 349 0.0 1.6 0.00 0.00 0.00 80 1011.8
20240222095937 19 238 3.2 6.4 0.00 0.00 0.00 80 1011.7
20240222093936 19 257 3.2 4.8 0.00 0.00 0.00 80 1011.5
20240222092938 19 284 1.6 8.0 0.00 0.00 0.00 80 1011.0
20240222090936 19 230 8.0 11.3 0.00 0.00 0.00 80 1010.6
20240222085936 19 215 8.0 11.3 0.00 0.00 0.00 80 1010.8
20240222084936 19 147 6.4 20.9 0.00 0.00 0.00 80 1010.9
20240222083936 19 182 9.7 9.7 0.00 0.00 0.00 80 1011.1
20240222082936 19 175 6.4 17.7 0.00 0.00 0.00 80 1011.1
20240222081936 19 205 3.2 6.4 0.00 0.00 0.00 80 1011.1
20240222080935 19 213 19.3 19.3 0.00 0.00 0.00 80 1011.4
20240222075936 19 277 4.8 11.3 0.00 0.00 0.00 80 1011.5
20240222074935 19 177 4.8 12.9 0.00 0.00 0.00 80 1011.3
20240222073936 19 168 16.1 16.1 0.00 0.00 0.00 80 1011.0
20240222072935 19 209 12.9 19.3 0.00 0.00 0.00 80 1011.1
20240222071935 19 282 1.6 22.5 0.00 0.00 0.00 80 1011.4
20240222070936 19 302 3.2 20.9 0.00 0.00 0.00 80 1011.4
20240222065935 19 195 11.3 14.5 0.00 0.00 0.00 81 1011.5
20240222062935 19 215 6.4 25.7 0.00 0.00 0.00 82 1011.9
20240222060935 19 225 9.7 16.1 0.00 0.00 0.00 82 1012.5
20240222055935 19 207 11.3 19.3 0.00 0.00 0.00 82 1012.5
20240222054935 19 257 3.2 9.7 0.00 0.00 0.00 82 1012.4
20240222053935 19 168 11.3 19.3 0.00 0.00 0.00 82 1012.8
20240222052934 19 173 11.3 14.5 0.00 0.00 0.00 82 1012.9
20240222051935 19 239 8.0 11.3 0.00 0.00 0.00 82 1013.0
20240222050935 19 245 4.8 11.3 0.00 0.00 0.00 82 1012.9
20240222045935 19 209 20.9 20.9 0.00 0.00 0.00 82 1013.0
20240222043934 19 134 17.7 17.7 0.00 0.00 0.00 81 1012.8
20240222042935 19 206 4.8 16.1 0.00 0.00 0.00 81 1012.7
20240222041934 19 229 12.9 33.8 0.00 0.00 0.00 81 1012.6
20240222040935 19 194 16.1 27.4 0.00 0.00 0.00 81 1012.5
20240222035934 19 180 16.1 17.7 0.00 0.00 0.00 81 1012.5
20240222034934 19 155 24.1 24.1 0.00 0.00 0.00 81 1012.5
20240222032934 19 159 8.0 20.9 0.00 0.00 0.00 80 1012.5
20240222031933 19 191 16.1 25.7 0.00 0.00 0.00 80 1012.6
20240222030935 19 150 6.4 20.9 0.00 0.00 0.00 80 1012.5
20240222025933 19 206 11.3 19.3 0.00 0.00 0.00 79 1012.6
20240222024933 20 109 16.1 17.7 0.00 0.00 0.00 78 1012.0
20240222023933 20 167 4.8 14.5 0.00 0.00 0.00 78 1011.8
20240222022933 20 209 3.2 27.4 0.00 0.00 0.00 77 1011.4
20240222021933 20 208 9.7 24.1 0.00 0.00 0.00 75 1011.7
20240222015933 20 168 19.3 22.5 0.00 0.00 0.00 74 1012.0
20240222014933 21 124 6.4 22.5 0.00 0.00 0.00 73 1011.7
20240222013932 21 173 4.8 19.3 0.00 0.00 0.00 72 1011.9
20240222012932 21 152 14.5 14.5 0.00 0.00 0.00 72 1012.1
20240222011932 21 289 8.0 16.1 0.00 0.00 0.00 71 1012.1
20240222010932 22 207 4.8 16.1 0.00 0.00 0.00 71 1012.4
20240222004932 22 176 8.0 17.7 0.00 0.00 0.00 69 1012.9
20240222003932 22 140 4.8 9.7 0.00 0.00 0.00 68 1013.0
20240222002931 23 220 8.0 14.5 0.00 0.00 0.00 67 1013.1
20240222001931 23 165 9.7 22.5 0.00 0.00 0.00 66 1013.1
20240222000931 23 202 6.4 19.3 0.00 0.00 0.00 65 1013.1
20240221235931 24 114 20.9 22.5 0.00 0.00 0.00 63 1013.3
20240221234931 25 188 11.3 17.7 0.00 0.00 0.00 61 1013.3
20240221233931 25 157 4.8 14.5 0.00 0.00 0.00 60 1013.3
20240221232931 25 161 8.0 9.7 0.00 0.00 0.00 60 1013.1
20240221231931 25 150 9.7 16.1 0.00 0.00 0.00 59 1012.8
20240221224931 25 195 12.9 29.0 0.00 0.00 0.00 59 1013.1
20240221222931 25 136 20.9 22.5 0.00 0.00 0.00 61 1013.2
20240221221932 26 157 19.3 19.3 0.00 0.00 0.00 61 1013.6
20240221214930 25 172 9.7 20.9 0.00 0.00 0.00 64 1013.9
20240221213930 25 138 6.4 25.7 0.00 0.00 0.00 63 1014.0
20240221212930 25 130 4.8 11.3 0.00 0.00 0.00 65 1014.1
20240221211930 24 150 14.5 24.1 0.00 0.00 0.00 65 1014.4
20240221205930 23 187 9.7 17.7 0.00 0.00 0.00 68 1014.7
20240221204929 23 188 16.1 20.9 0.00 0.00 0.00 68 1014.9
20240221203929 22 218 8.0 33.8 0.00 0.00 0.00 70 1015.2
20240221202929 22 117 11.3 25.7 0.00 0.00 0.00 71 1015.3
20240221201929 22 209 16.1 22.5 0.00 0.00 0.00 71 1015.7
20240221200929 22 177 11.3 19.3 0.00 0.00 0.00 72 1016.0
20240221195929 21 167 9.7 27.4 0.00 0.00 0.00 73 1016.3
20240221194929 22 147 22.5 22.5 0.00 0.00 0.00 73 1016.5
20240221193929 22 225 14.5 14.5 0.00 0.00 0.00 72 1016.8
20240221192929 21 249 12.9 17.7 0.00 0.00 0.00 75 1017.1
20240221191929 21 232 11.3 24.1 0.00 0.00 0.00 75 1017.4
20240221190928 21 222 8.0 17.7 0.00 0.00 0.00 77 1017.7
20240221185928 21 194 11.3 19.3 0.00 0.00 0.00 77 1017.9
20240221184928 21 184 12.9 19.3 0.00 0.00 0.00 77 1018.0
20240221183928 21 162 1.6 16.1 0.00 0.00 0.00 77 1018.3
20240221182958 21 274 6.4 37.0 0.00 0.00 0.00 77 1018.5
20240221181958 20 159 16.1 19.3 0.00 0.00 0.00 79 1018.6
20240221180958 20 244 8.0 20.9 0.00 0.00 0.00 80 1018.9
20240221175959 20 190 11.3 19.3 0.00 0.00 0.00 80 1019.0
20240221174957 20 157 14.5 20.9 0.00 0.00 0.00 80 1019.1
20240221173957 20 200 12.9 19.3 0.00 0.00 0.00 80 1019.4
20240221171957 19 275 11.3 12.9 0.00 0.00 0.00 81 1019.7
20240221165957 18 195 8.0 12.9 0.00 0.00 0.00 82 1020.0
20240221164957 19 217 9.7 19.3 0.00 0.00 0.00 81 1020.1
20240221163957 19 159 14.5 16.1 0.00 0.00 0.00 81 1020.1
20240221162957 18 192 9.7 16.1 0.00 0.00 0.00 81 1020.2
20240221161956 18 184 9.7 14.5 0.00 0.00 0.00 82 1020.4
20240221160956 18 185 4.8 12.9 0.00 0.00 0.00 82 1020.5
20240221155956 18 177 3.2 9.7 0.00 0.00 0.00 82 1020.5
20240221154957 18 169 9.7 17.7 0.00 0.00 0.00 82 1020.5
20240221152956 17 254 6.4 16.1 0.00 0.00 0.00 83 1020.5
20240221150956 17 158 1.6 11.3 0.00 0.00 0.00 82 1020.4
20240221145956 17 168 16.1 16.1 0.00 0.00 0.00 82 1020.3
20240221144956 17 154 11.3 12.9 0.00 0.00 0.00 82 1020.2
20240221143956 17 265 4.8 9.7 0.00 0.00 0.00 82 1020.1
20240221142956 17 162 8.0 8.0 0.00 0.00 0.00 82 1020.1
20240221135955 17 163 3.2 11.3 0.00 0.00 0.00 82 1019.8
20240221134955 17 174 3.2 16.1 0.00 0.00 0.00 82 1019.9
20240221133955 17 136 12.9 16.1 0.00 0.00 0.00 82 1019.9
20240221132955 17 321 12.9 12.9 0.00 0.00 0.00 82 1019.9
20240221131955 17 175 3.2 4.8 0.00 0.00 0.00 82 1020.1
20240221130955 17 315 12.9 12.9 0.00 0.00 0.00 82 1020.1
20240221125955 17 189 8.0 8.0 0.00 0.00 0.00 82 1020.0
20240221123955 17 225 3.2 11.3 0.00 0.00 0.00 83 1020.1
20240221122955 17 175 14.5 19.3 0.00 0.00 0.00 83 1020.0
20240221121955 17 236 6.4 12.9 0.00 0.00 0.00 83 1019.9
20240221114954 17 230 8.0 19.3 0.00 0.00 0.00 83 1020.0
20240221113954 17 186 3.2 8.0 0.00 0.00 0.00 83 1019.9
20240221111956 17 281 6.4 14.5 0.00 0.00 0.00 83 1019.8